Temp
7 7 7 8 8 8 8 8 9 9 10 10 10 10 11 11 11 11 12 12 12 12 12 12 12 12 13 12 11 10 9 12 12 12 13 12 11 12 13 13 13 12 13 13 13
7 7 7 7 7 8 8 8 9 9 9 10 10 10 10 11 11 10 11 11 12 12 12 12 12 12 11 12 12 9 10 11 12 11 11 11 10 11 12 13 13 12 12 12 12
6 6 7 7 7 7 7 8 8 9 9 9 9 10 10 10 10 11 11 11 11 11 11 11 11 11 12 11 11 10 11 11 12 10 10 10 10 10 11 12 12 11 12 12 12
6 6 6 6 7 7 7 7 7 8 8 9 9 9 9 9 9 9 10 10 11 11 10 10 11 11 11 11 11 10 11 10 11 11 10 10 10 11 11 12 12 11 11 12 12
5 5 6 6 6 6 7 7 7 7 7 8 8 9 9 9 11 8 9 10 10 10 10 10 10 10 10 10 11 11 10 10 10 11 10 10 10 11 12 12 11 10 10 10 11
5 5 5 5 5 6 6 6 6 6 7 7 8 8 9 10 10 9 9 9 10 9 9 9 10 9 9 10 10 10 9 10 10 10 10 10 10 10 11 11 11 10 10 10 10
5 5 5 5 5 5 5 6 6 6 6 7 7 8 9 11 9 9 9 9 9 9 9 9 8 8 8 8 9 9 8 9 10 10 10 10 10 10 11 11 10 10 10 10 10
4 5 4 5 5 5 5 6 5 5 6 6 6 7 9 9 9 9 8 9 9 9 9 9 7 7 7 7 8 7 7 7 11 10 10 9 8 10 11 10 10 10 10 10 10
3 3 3 3 4 4 4 5 4 5 5 5 6 6 8 7 8 9 9 9 9 9 9 8 7 7 5 6 6 7 6 7 8 10 9 9 9 10 11 10 10 10 10 10 10
3 3 2 2 2 2 3 3 3 4 4 5 5 5 7 6 6 7 8 8 8 8 8 7 7 5 5 6 5 8 7 7 7 10 9 9 8 9 11 11 10 10 10 10 10
1 1 1 2 2 2 2 2 3 3 4 4 4 4 5 5 4 6 6 6 7 7 7 7 6 5 8 8 7 6 6 6 7 10 7 8 8 9 9 10 10 10 10 10 10
0 1 1 1 2 1 2 2 2 1 3 4 5 5 6 5 5 5 4 4 5 6 6 5 5 6 6 5 5 5 5 6 7 7 7 8 8 9 9 9 9 10 10 10 10
-0 -0 -0 0 1 1 0 0 1 1 1 4 4 6 5 4 6 6 4 3 3 4 5 5 5 5 5 5 4 5 5 6 6 7 7 7 8 8 8 9 9 9 10 10 10
-0 -0 -1 -1 -1 -0 1 -0 0 -1 -1 2 4 4 5 5 6 7 6 4 2 3 4 3 3 3 3 4 5 4 5 5 6 6 6 7 6 7 8 9 9 9 10 10 9
-1 -1 -1 -1 -1 -0 0 -0 -1 -1 -1 3 3 3 4 5 5 5 5 4 3 2 2 2 3 4 4 4 4 4 5 5 6 6 6 6 6 6 7 7 8 8 9 9 9
-1 -1 -1 -1 -1 -1 -1 -1 -1 -1 -2 3 3 4 4 5 3 3 4 4 3 2 2 2 2 3 3 3 4 4 5 5 5 5 4 5 6 5 7 7 7 8 8 9 10
-1 -1 -1 -1 -1 -1 -2 -2 -2 -2 1 3 2 3 3 4 3 2 3 3 1 1 1 2 2 2 3 3 4 4 3 1 3 2 4 6 6 6 5 5 5 6 7 8 9
-1 -2 -2 -2 -2 -2 -3 -2 -2 -0 1 2 2 2 2 3 4 2 1 2 2 2 2 2 2 4 4 3 4 5 4 1 1 1 3 5 5 5 5 5 4 5 5 6 6
-2 -2 -2 -2 -2 -2 -3 -2 -2 -2 -0 1 1 2 2 2 2 3 1 1 2 2 1 2 3 4 4 5 4 3 3 2 2 2 1 4 3 3 3 3 3 3 4 4 4
-2 -2 -2 -2 -3 -3 -2 -3 -2 -2 -1 -0 -0 0 1 2 2 2 2 2 2 3 3 3 3 4 4 4 3 4 4 3 -0 1 1 2 4 4 3 2 3 3 3 2 2
-3 -3 -3 -3 -4 -3 -4 -3 -2 -3 -2 -2 -1 -1 -0 1 1 1 2 2 2 2 2 2 3 3 3 3 4 4 3 2 0 -0 0 -0 0 1 2 3 3 2 3 2 2
-5 -5 -4 -4 -5 -5 -4 -4 -4 -3 -3 -2 -2 -2 -1 -2 -0 -1 1 1 1 2 2 2 2 2 3 3 3 3 3 2 -1 -1 -1 -0 0 1 1 2 1 1 1 0 0
-5 -5 -5 -5 -5 -5 -5 -4 -4 -4 -4 -4 -3 -3 -2 -3 -3 -3 -2 -1 -1 -1 -1 1 1 1 1 2 2 2 2 1 1 -0 -0 -1 -0 -0 -0 0 0 0 -0 -2 -1
-6 -7 -6 -6 -6 -6 -5 -5 -5 -4 -4 -4 -4 -4 -4 -4 -4 -4 -3 -3 -3 -2 -1 -2 -2 -0 1 1 1 1 1 1 0 -1 -1 -1 -0 -0 -1 -1 -1 -0 -1 -1 -1
-7 -6 -6 -7 -7 -7 -7 -7 -6 -6 -5 -5 -5 -4 -4 -4 -4 -4 -4 -4 -3 -2 -2 -2 -1 -1 -1 -0 0 -0 -0 0 0 0 -1 1 -0 1 0 -1 -1 -2 -2 -1 -0
-7 -8 -6 -7 -7 -7 -8 -8 -7 -7 -6 -6 -5 -5 -4 -5 -4 -4 -4 -3 -3 -3 -3 -3 -2 -2 -2 -1 -2 -2 -1 -0 -1 -1 -1 -1 -1 1 0 -1 -2 -1 -1 -1 -1
-8 -8 -8 -9 -9 -9 -7 -7 -7 -8 -8 -8 -7 -7 -7 -6 -6 -5 -5 -4 -3 -3 -3 -4 -3 -3 -3 -2 -3 -3 -1 -2 -0 -1 -1 -1 1 1 -0 -1 -1 -1 -1 -1 -1
Height
3144 3145 3147 3148 3149 3149 3149 3151 3151 3151 3152 3153 3153 3153 3153 3153 3155 3155 3155 3155 3155 3155 3155 3155 3154 3152 3152 3153 3151 3150 3150 3145 3144 3147 3146 3146 3146 3147 3148 3144 3141 3140 3139 3138 3139
3137 3139 3141 3143 3144 3144 3145 3145 3146 3146 3147 3148 3148 3149 3150 3149 3151 3151 3151 3151 3150 3150 3150 3151 3150 3149 3149 3150 3148 3147 3146 3143 3145 3145 3143 3143 3144 3143 3144 3142 3140 3138 3138 3136 3137
3131 3132 3134 3136 3138 3139 3139 3139 3140 3141 3142 3142 3143 3143 3144 3145 3147 3146 3147 3145 3146 3146 3146 3147 3146 3145 3146 3147 3146 3142 3139 3141 3140 3141 3140 3140 3138 3139 3140 3140 3138 3135 3134 3134 3134
3125 3128 3128 3129 3131 3132 3133 3134 3134 3135 3135 3136 3136 3137 3137 3140 3145 3141 3141 3140 3140 3142 3143 3142 3142 3140 3141 3141 3141 3135 3137 3136 3135 3135 3134 3134 3135 3132 3135 3137 3134 3131 3130 3130 3131
3119 3120 3123 3123 3124 3126 3127 3127 3128 3129 3129 3129 3129 3130 3132 3132 3140 3136 3136 3137 3138 3138 3137 3136 3137 3135 3134 3136 3135 3132 3131 3130 3128 3129 3128 3128 3128 3128 3127 3131 3130 3128 3127 3127 3128
3111 3113 3116 3117 3119 3120 3121 3122 3121 3122 3123 3122 3121 3122 3123 3125 3132 3129 3131 3132 3134 3133 3132 3133 3132 3130 3128 3130 3131 3127 3123 3122 3123 3123 3123 3122 3122 3122 3122 3125 3123 3121 3123 3123 3123
3103 3105 3109 3111 3112 3113 3113 3115 3116 3117 3116 3116 3114 3112 3112 3123 3124 3123 3124 3126 3129 3127 3129 3129 3126 3125 3123 3123 3125 3119 3115 3115 3115 3117 3118 3118 3114 3114 3116 3117 3118 3115 3118 3118 3119
3095 3098 3099 3101 3105 3106 3106 3107 3108 3109 3110 3110 3106 3106 3098 3117 3116 3120 3119 3116 3121 3124 3122 3124 3123 3119 3116 3118 3116 3114 3112 3106 3109 3112 3112 3112 3105 3110 3111 3111 3111 3111 3112 3114 3113
3088 3090 3092 3095 3096 3099 3100 3101 3101 3101 3101 3101 3102 3101 3097 3103 3107 3108 3111 3110 3112 3115 3115 3117 3117 3111 3111 3114 3109 3108 3102 3102 3102 3105 3105 3105 3103 3105 3105 3106 3106 3107 3106 3107 3108
3079 3083 3086 3087 3089 3090 3092 3093 3093 3093 3094 3094 3095 3098 3094 3097 3098 3104 3104 3105 3107 3106 3108 3109 3107 3103 3104 3108 3100 3100 3099 3098 3099 3101 3100 3098 3097 3099 3097 3099 3100 3102 3101 3101 3101
3070 3074 3077 3079 3082 3084 3086 3087 3088 3088 3085 3088 3087 3084 3085 3089 3093 3097 3097 3099 3098 3098 3101 3103 3100 3093 3099 3102 3100 3099 3097 3093 3094 3094 3094 3093 3092 3095 3095 3095 3097 3098 3098 3095 3094
3063 3067 3071 3073 3075 3077 3079 3080 3079 3079 3071 3071 3072 3067 3076 3085 3074 3083 3090 3091 3091 3090 3095 3095 3086 3092 3095 3096 3095 3094 3092 3089 3089 3090 3089 3087 3084 3089 3090 3090 3091 3092 3092 3090 3089
3054 3058 3061 3066 3067 3066 3069 3073 3071 3072 3066 3052 3056 3058 3061 3067 3060 3062 3083 3079 3081 3082 3083 3082 3084 3089 3087 3088 3090 3090 3088 3087 3086 3086 3083 3080 3074 3078 3083 3084 3085 3085 3084 3084 3084
3046 3050 3054 3058 3060 3061 3063 3067 3068 3070 3064 3043 3050 3047 3049 3048 3043 3053 3060 3069 3071 3071 3077 3074 3078 3081 3082 3080 3084 3082 3087 3085 3083 3084 3079 3079 3065 3069 3074 3075 3076 3071 3073 3073 3076
3039 3045 3047 3050 3054 3056 3061 3063 3065 3068 3063 3046 3044 3045 3044 3046 3042 3045 3049 3054 3054 3063 3070 3063 3071 3074 3070 3074 3080 3078 3083 3079 3079 3077 3074 3073 3072 3063 3068 3069 3065 3063 3062 3063 3066
3032 3037 3040 3042 3047 3050 3053 3057 3062 3065 3051 3041 3037 3040 3041 3041 3040 3040 3046 3048 3054 3059 3059 3059 3065 3068 3065 3066 3070 3075 3076 3074 3071 3071 3066 3069 3073 3059 3063 3061 3058 3056 3052 3053 3057
3023 3028 3034 3036 3038 3042 3047 3052 3056 3048 3041 3037 3034 3035 3038 3037 3039 3037 3036 3041 3046 3052 3051 3055 3053 3056 3060 3059 3063 3067 3073 3073 3068 3066 3056 3061 3062 3059 3058 3058 3056 3053 3051 3048 3048
3016 3020 3024 3027 3030 3035 3040 3046 3039 3029 3032 3031 3032 3032 3034 3034 3032 3036 3035 3034 3039 3044 3046 3047 3047 3043 3044 3046 3051 3056 3063 3064 3063 3060 3055 3056 3054 3054 3054 3054 3053 3051 3050 3047 3042
3007 3008 3013 3017 3022 3027 3032 3028 3023 3023 3027 3028 3028 3026 3029 3030 3034 3031 3030 3028 3032 3035 3041 3041 3040 3037 3038 3039 3045 3047 3051 3055 3056 3055 3057 3053 3052 3053 3050 3051 3050 3048 3049 3049 3048
2995 3001 3004 3009 3011 3016 3018 3011 3013 3018 3020 3021 3022 3024 3023 3024 3026 3028 3025 3022 3026 3029 3034 3035 3036 3034 3034 3036 3038 3039 3046 3049 3050 3052 3051 3046 3046 3045 3047 3046 3044 3046 3048 3049 3048
2987 2990 2996 3002 3004 3002 2997 3001 3004 3009 3013 3017 3016 3016 3017 3017 3017 3019 3018 3021 3022 3023 3026 3030 3030 3032 3031 3032 3032 3034 3033 3037 3042 3045 3043 3043 3042 3040 3042 3042 3042 3043 3044 3047 3048
2981 2983 2991 2995 2996 2988 2988 2995 2999 2999 3004 3008 3010 3008 3010 3009 3011 3012 3012 3014 3017 3020 3021 3021 3022 3024 3028 3024 3026 3027 3027 3031 3037 3040 3039 3039 3038 3038 3039 3039 3039 3040 3039 3041 3041
2973 2978 2984 2987 2986 2985 2986 2991 2994 2997 2996 2998 3000 3000 3004 3004 3006 3004 3007 3008 3011 3014 3014 3014 3017 3018 3023 3025 3021 3022 3024 3027 3029 3031 3032 3035 3033 3033 3035 3036 3035 3037 3040 3039 3040
2968 2971 2976 2980 2982 2981 2983 2986 2988 2990 2991 2991 2992 2994 2996 2997 2998 3000 3003 3003 3007 3009 3009 3009 3010 3011 3013 3017 3018 3018 3019 3021 3023 3026 3025 3026 3028 3031 3033 3031 3033 3033 3032 3035 3037
2964 2967 2969 2973 2975 2976 2978 2980 2981 2983 2983 2986 2985 2986 2988 2991 2991 2993 2999 3000 3001 3003 3004 3006 3004 3007 3008 3011 3013 3015 3017 3015 3013 3016 3017 3014 3018 3016 3022 3025 3026 3026 3028 3027 3027
2959 2961 2962 2967 2971 2973 2975 2976 2977 2976 2977 2979 2978 2976 2981 2984 2983 2986 2989 2994 2996 2998 2999 3000 3000 3002 3002 3004 3005 3007 3008 3005 3005 3005 3007 3009 3007 3009 3013 3014 3016 3018 3018 3017 3017
2951 2959 2963 2961 2964 2968 2968 2970 2974 2974 2974 2974 2973 2974 2973 2976 2977 2979 2982 2986 2989 2992 2992 2994 2995 2996 2996 2997 2999 3002 2994 3001 2994 2994 2999 3001 2999 3002 3005 3007 3009 3010 3010 3010 3011
Wind_Speed
30 29 29 28 27 27 27 27 27 26 26 26 26 25 24 23 19 21 21 19 19 19 18 16 15 14 13 10 13 13 17 26 25 17 15 10 20 11 11 14 15 16 19 18 14
32 31 31 31 30 29 29 28 29 28 28 28 27 27 27 27 23 21 22 21 20 18 16 15 14 15 12 11 14 17 21 24 20 16 17 16 22 20 15 16 20 20 18 19 18
34 32 32 32 32 31 30 30 31 30 30 31 30 29 28 27 26 25 20 18 17 15 14 15 16 17 15 16 16 20 28 25 26 21 21 24 27 26 21 18 16 17 19 21 21
34 34 33 32 32 33 32 32 33 33 33 33 33 32 30 29 19 14 14 13 14 15 16 16 17 20 21 20 21 25 26 26 28 25 26 30 28 31 25 21 22 16 18 21 23
36 35 36 35 34 35 35 34 35 35 35 36 35 35 34 33 22 26 26 24 22 21 21 22 21 24 25 26 27 30 30 29 32 30 30 25 28 31 34 27 28 20 16 21 21
37 36 36 36 36 36 36 37 36 37 38 37 37 37 37 36 24 29 24 23 22 23 21 21 24 27 28 29 30 32 35 32 31 34 35 36 35 30 33 27 25 28 16 17 20
36 35 36 36 36 37 37 39 38 38 38 40 41 41 42 29 28 31 31 25 24 27 22 21 24 28 30 32 27 31 32 30 30 29 35 38 42 37 34 31 27 26 23 17 21
37 37 35 34 36 37 38 39 38 38 39 42 42 45 50 32 31 29 29 31 26 27 27 23 25 30 33 34 34 35 35 37 29 24 23 27 38 30 20 20 19 23 28 25 23
40 37 35 36 35 38 39 38 37 39 41 43 45 45 51 27 23 26 28 31 31 31 32 28 29 35 34 30 35 34 36 36 34 23 18 16 24 25 21 23 19 21 24 31 28
32 35 35 35 36 38 39 40 41 44 44 47 49 47 43 32 33 30 28 27 26 27 31 31 32 34 28 27 31 32 29 28 26 13 15 23 30 26 16 20 21 20 28 30 34
27 28 26 27 29 30 34 43 44 46 50 51 47 49 44 35 29 28 27 31 30 28 28 30 33 38 30 28 30 29 30 32 25 21 28 30 31 28 11 22 24 24 26 32 29
33 33 33 33 36 37 41 44 43 42 49 54 55 59 56 48 55 47 32 32 34 36 32 32 40 35 29 26 27 26 29 29 26 20 26 29 36 33 29 22 22 27 30 30 34
31 28 28 28 32 38 40 37 37 36 41 58 55 53 50 46 56 57 39 40 34 34 35 39 40 16 18 25 29 28 29 27 32 29 29 30 38 34 34 31 31 30 30 33 38
26 26 25 22 28 31 27 25 18 9 19 39 31 28 20 24 39 35 37 46 40 40 35 34 34 35 31 29 24 30 23 29 34 28 29 21 15 23 33 32 26 32 36 39 37
28 30 29 29 29 24 14 15 15 12 4 9 10 9 12 12 13 10 11 34 53 44 34 35 13 15 27 29 26 30 23 29 35 32 30 22 21 14 19 34 34 35 35 35 39
34 35 33 36 32 29 29 24 21 11 10 7 11 12 16 12 17 16 11 18 30 47 45 42 38 32 26 25 24 21 23 22 21 23 19 22 17 15 11 16 19 23 29 31 30
38 36 33 30 32 27 30 25 17 11 11 9 13 18 17 18 18 18 18 21 20 24 43 44 51 48 38 35 29 26 24 6 5 5 12 12 17 28 13 7 14 16 18 23 26
35 36 36 34 30 29 27 27 18 22 30 14 15 18 23 22 24 26 19 20 20 26 12 22 12 27 35 46 40 33 33 11 5 4 2 10 9 11 13 13 10 6 4 5 4
39 38 36 35 36 35 34 37 25 31 16 35 16 18 24 18 15 20 34 33 27 26 21 18 12 12 10 14 26 23 35 31 20 22 6 6 3 12 13 9 7 8 9 7 5
43 40 37 43 42 39 44 46 44 30 25 21 26 18 15 25 21 20 17 17 33 26 24 17 10 18 9 9 18 17 15 16 11 4 5 6 15 15 18 16 18 18 16 13 18
40 34 40 41 36 39 45 40 47 40 33 26 26 24 26 17 18 19 12 12 26 27 33 36 22 11 18 16 20 16 18 14 12 7 3 3 4 15 17 18 17 16 14 11 9
14 25 30 34 33 38 46 44 36 22 40 40 34 29 32 25 23 17 20 12 14 18 18 24 21 24 22 13 16 12 19 26 9 7 9 4 7 13 15 18 17 13 11 19 15
29 24 17 22 34 37 33 39 40 23 19 24 34 32 30 22 17 18 22 17 16 13 12 15 11 8 9 20 17 16 16 13 11 8 9 5 4 18 18 21 19 17 12 7 11
23 13 19 22 29 26 31 39 37 42 27 30 25 23 21 24 23 12 12 10 17 18 13 17 21 14 13 8 16 19 19 18 16 14 12 21 23 22 24 23 23 21 20 20 28
24 21 19 14 25 19 20 15 23 31 25 38 27 31 31 28 27 24 24 26 23 21 20 18 23 25 28 27 25 27 25 28 30 30 26 39 30 42 35 33 36 40 34 30 29
22 24 29 22 26 15 14 5 6 9 17 16 30 21 37 29 24 22 31 29 29 23 25 24 28 27 29 31 29 27 34 40 32 34 34 35 40 40 40 36 32 35 21 24 21
18 23 28 24 19 24 26 27 19 18 13 6 7 6 7 18 21 24 28 29 33 29 30 24 26 25 25 34 18 18 46 40 42 37 34 33 30 25 22 17 16 16 18 19 21
Wind_Direction
247 250 253 255 258 261 264 269 273 275 276 278 281 282 282 279 281 288 285 283 281 284 282 278 276 279 282 285 266 233 248 269 276 282 257 276 320 301 272 263 286 276 242 245 239
244 248 253 256 259 260 264 267 270 273 276 277 279 281 282 283 283 282 281 283 281 278 280 275 276 277 282 290 273 228 254 273 285 285 287 286 302 296 272 262 267 288 266 243 252
247 247 249 254 258 261 263 265 268 270 273 273 276 277 280 282 285 281 282 273 274 275 274 271 271 275 276 278 273 260 263 272 276 276 283 286 289 286 265 257 273 292 271 259 254
251 254 253 254 258 261 264 268 271 273 274 275 277 278 278 279 285 284 270 262 256 262 265 268 275 279 277 276 269 263 268 260 265 265 265 271 269 273 270 248 266 282 276 264 258
253 252 257 257 258 261 262 264 268 270 272 274 276 277 276 274 279 272 273 273 270 272 269 270 273 274 274 273 274 273 277 263 251 250 256 262 260 261 265 267 259 266 259 246 253
250 254 257 259 262 264 267 268 267 270 274 275 275 276 275 275 280 277 272 271 276 269 264 271 271 273 278 275 278 283 276 272 263 252 252 258 261 259 263 273 254 257 262 241 245
248 252 254 259 261 264 265 268 271 273 274 275 277 275 271 276 275 272 280 272 266 268 268 266 269 272 275 280 278 278 282 276 270 268 262 264 264 259 271 267 262 257 258 249 243
242 245 250 253 260 264 265 267 271 273 274 274 275 275 274 279 268 270 265 273 273 271 266 256 259 266 267 273 275 275 275 275 285 285 277 273 278 274 262 254 253 260 251 251 248
248 249 251 254 256 261 264 267 271 272 273 275 275 276 279 284 277 270 265 266 261 267 269 266 263 263 260 265 267 270 271 277 287 286 280 298 296 282 268 255 255 241 253 249 253
245 248 252 258 261 263 266 268 269 269 271 271 273 277 278 279 264 261 261 266 264 255 255 256 253 250 255 251 250 268 273 283 285 246 276 299 301 304 250 244 247 248 251 247 248
239 240 247 253 257 264 271 268 268 273 270 270 267 268 269 271 270 254 254 265 261 256 262 257 243 243 266 273 276 276 274 275 274 255 287 295 292 287 278 253 241 260 255 249 254
256 254 261 263 260 265 267 268 272 275 278 271 268 267 265 268 267 257 256 259 257 256 253 249 252 261 268 262 264 268 271 270 273 268 295 299 285 279 267 259 250 251 257 254 256
251 262 262 264 267 269 272 272 273 278 279 278 277 274 275 267 264 265 250 248 246 247 241 250 259 269 262 255 262 262 262 271 278 288 287 292 283 286 279 269 263 258 255 255 261
252 246 258 256 259 262 271 256 255 263 278 280 292 287 277 260 260 264 251 239 235 240 241 257 259 250 245 251 257 267 266 281 281 283 281 288 289 286 279 281 277 262 255 250 249
245 250 257 256 261 258 228 256 254 243 268 279 272 257 240 240 259 263 240 225 231 228 231 235 222 235 240 244 252 269 282 276 274 278 287 291 290 291 285 291 281 277 267 263 252
245 249 249 254 256 256 233 255 250 226 242 249 241 241 242 228 229 235 235 218 233 231 231 240 245 240 238 238 239 260 277 274 272 271 276 267 257 294 264 266 276 277 273 268 254
244 244 246 244 254 251 241 233 235 209 231 251 234 227 246 241 222 210 211 199 196 206 232 243 245 245 241 248 237 243 269 297 265 190 254 257 233 249 253 254 268 276 281 276 263
245 244 240 249 243 236 227 226 223 236 214 218 219 223 237 239 230 209 203 202 213 223 230 229 259 244 244 238 249 246 233 203 217 210 270 194 228 231 240 236 236 245 292 337 256
223 230 241 243 236 232 218 219 224 234 232 228 236 229 232 235 232 218 223 220 216 220 212 212 226 164 218 232 224 239 230 233 246 267 305 216 170 189 199 230 256 263 276 286 78
229 229 232 236 232 220 226 222 230 227 227 229 224 225 221 221 218 222 220 233 225 221 228 224 227 199 214 182 198 230 227 181 190 194 220 222 203 214 218 234 260 263 266 279 294
213 208 217 209 199 202 207 219 232 227 229 222 224 219 221 208 204 193 207 221 215 228 229 231 233 227 236 217 218 210 180 190 188 191 209 183 210 218 230 239 249 267 278 279 282
218 204 213 214 223 214 214 223 225 227 231 233 233 223 226 225 221 215 210 190 204 201 199 207 223 229 223 199 203 208 208 219 182 200 214 211 226 210 226 239 235 242 258 282 281
270 248 252 234 229 230 229 234 236 219 223 228 228 226 224 259 252 253 239 243 236 254 224 215 214 196 230 225 223 218 205 207 205 192 205 174 211 202 221 235 243 258 235 223 288
213 209 235 233 233 237 241 245 244 245 236 231 231 230 231 228 249 238 233 262 248 253 256 246 230 229 237 232 208 213 224 236 249 250 245 247 258 252 253 245 246 243 236 274 295
200 219 225 218 221 226 230 243 244 246 244 239 242 230 225 227 220 229 243 243 243 255 261 257 258 252 252 257 250 264 266 256 251 258 232 266 261 276 272 258 266 271 278 288 280
224 219 219 234 242 243 245 256 239 210 220 231 229 221 224 241 228 224 230 243 244 246 246 247 256 260 258 260 256 257 258 259 257 256 253 258 263 270 272 272 260 273 268 264 264
223 233 240 243 253 243 252 249 250 263 284 248 252 201 200 218 230 237 232 238 240 237 238 232 243 246 256 263 254 240 255 248 258 257 259 251 267 279 275 254 246 239 253 268 252